owner,sensor,date,latitude,longitude,vertical_datum,wind_speed,wind_to_direction,wind_speed_of_gust,qcFlag 
TCOON,ioos:station:TCOON:524:1,2019-07-01T00:00:00Z,29.8672,-93.9310,0.0,3.5,163.0,4.4,'11111222,11111222,11111222' 
TCOON,ioos:station:TCOON:524:1,2019-07-01T00:06:00Z,29.8672,-93.9310,0.0,2.6,158.0,4.6,'11111222,11111222,11111222' 
TCOON,ioos:station:TCOON:524:1,2019-07-01T00:12:00Z,29.8672,-93.9310,0.0,2.8,154.0,4.6,'11111222,11111222,11111222' 
TCOON,ioos:station:TCOON:524:1,2019-07-01T00:18:00Z,29.8672,-93.9310,0.0,2.6,157.0,4.2,'11111222,11111222,11111222' 
TCOON,ioos:station:TCOON:524:1,2019-07-01T00:24:00Z,29.8672,-93.9310,0.0,2.6,157.0,4.2,'11111222,11111222,11111222' 
TCOON,ioos:station:TCOON:524:1,2019-07-01T00:30:00Z,29.8672,-93.9310,0.0,2.8,164.0,3.9,'11111222,11111222,11111222' 
TCOON,ioos:station:TCOON:524:1,2019-07-01T00:36:00Z,29.8672,-93.9310,0.0,2.4,166.0,3.5,'11111222,11111222,11111222' 
TCOON,ioos:station:TCOON:524:1,2019-07-01T00:42:00Z,29.8672,-93.9310,0.0,2.0,161.0,3.9,'11111222,11111222,11111222' 
TCOON,ioos:station:TCOON:524:1,2019-07-01T00:48:00Z,29.8672,-93.9310,0.0,1.6,152.0,2.6,'11111222,11111222,11111222' 
TCOON,ioos:station:TCOON:524:1,2019-07-01T00:54:00Z,29.8672,-93.9310,0.0,1.9,148.0,2.3,'11111222,11111222,11111222' 
TCOON,ioos:station:TCOON:524:1,2019-07-01T01:00:00Z,29.8672,-93.9310,0.0,1.4,159.0,2.9,'11111222,11111222,11111222' 
TCOON,ioos:station:TCOON:524:1,2019-07-01T01:06:00Z,29.8672,-93.9310,0.0,0.9,163.0,2.3,'11111222,11111222,11111222' 
TCOON,ioos:station:TCOON:524:1,2019-07-01T01:12:00Z,29.8672,-93.9310,0.0,1.1,181.0,1.6,'11111222,11111222,11111222' 
TCOON,ioos:station:TCOON:524:1,2019-07-01T01:18:00Z,29.8672,-93.9310,0.0,1.3,156.0,2.1,'11111222,11111222,11111222' 
TCOON,ioos:station:TCOON:524:1,2019-07-01T01:24:00Z,29.8672,-93.9310,0.0,1.3,156.0,2.1,'11111222,11111222,11111222' 
TCOON,ioos:station:TCOON:524:1,2019-07-01T01:30:00Z,29.8672,-93.9310,0.0,1.2,147.0,1.7,'11111222,11111222,11111222' 
TCOON,ioos:station:TCOON:524:1,2019-07-01T01:36:00Z,29.8672,-93.9310,0.0,1.7,139.0,2.4,'11111222,11111222,11111222' 
TCOON,ioos:station:TCOON:524:1,2019-07-01T01:42:00Z,29.8672,-93.9310,0.0,1.9,134.0,2.8,'11111222,11111222,11111222' 
TCOON,ioos:station:TCOON:524:1,2019-07-01T01:48:00Z,29.8672,-93.9310,0.0,1.5,132.0,2.3,'11111222,11111222,11111222' 
TCOON,ioos:station:TCOON:524:1,2019-07-01T01:54:00Z,29.8672,-93.9310,0.0,0.9,122.0,2.2,'11111222,11111222,11111222' 
TCOON,ioos:station:TCOON:524:1,2019-07-01T02:00:00Z,29.8672,-93.9310,0.0,1.3,130.0,2.3,'11111222,11111222,11111222' 
TCOON,ioos:station:TCOON:524:1,2019-07-01T02:06:00Z,29.8672,-93.9310,0.0,1.2,127.0,1.7,'11111222,11111222,11111222' 
TCOON,ioos:station:TCOON:524:1,2019-07-01T02:12:00Z,29.8672,-93.9310,0.0,1.1,131.0,1.7,'11111222,11111222,11111222' 
TCOON,ioos:station:TCOON:524:1,2019-07-01T02:18:00Z,29.8672,-93.9310,0.0,1.1,127.0,2.4,'11111222,11111222,11111222' 
TCOON,ioos:station:TCOON:524:1,2019-07-01T02:24:00Z,29.8672,-93.9310,0.0,1.1,127.0,2.4,'11111222,11111222,11111222' 
TCOON,ioos:station:TCOON:524:1,2019-07-01T02:30:00Z,29.8672,-93.9310,0.0,1.3,129.0,2.0,'11111222,11111222,11111222' 
TCOON,ioos:station:TCOON:524:1,2019-07-01T02:36:00Z,29.8672,-93.9310,0.0,1.5,139.0,2.1,'11111222,11111222,11111222' 
TCOON,ioos:station:TCOON:524:1,2019-07-01T02:42:00Z,29.8672,-93.9310,0.0,1.1,128.0,1.7,'11111222,11111222,11111222' 
TCOON,ioos:station:TCOON:524:1,2019-07-01T02:48:00Z,29.8672,-93.9310,0.0,0.9,133.0,1.4,'11111222,11111222,11111222' 
TCOON,ioos:station:TCOON:524:1,2019-07-01T02:54:00Z,29.8672,-93.9310,0.0,1.2,128.0,1.8,'11111222,11111222,11111222' 
TCOON,ioos:station:TCOON:524:1,2019-07-01T03:00:00Z,29.8672,-93.9310,0.0,1.6,118.0,2.3,'11111222,11111222,11111222' 
TCOON,ioos:station:TCOON:524:1,2019-07-01T03:06:00Z,29.8672,-93.9310,0.0,0.9,133.0,2.1,'11111222,11111222,11111222' 
TCOON,ioos:station:TCOON:524:1,2019-07-01T03:12:00Z,29.8672,-93.9310,0.0,1.6,136.0,2.4,'11111222,11111222,11111222' 
TCOON,ioos:station:TCOON:524:1,2019-07-01T03:18:00Z,29.8672,-93.9310,0.0,1.6,142.0,2.4,'11111222,11111222,11111222' 
TCOON,ioos:station:TCOON:524:1,2019-07-01T03:24:00Z,29.8672,-93.9310,0.0,1.6,142.0,2.4,'11111222,11111222,11111222' 
TCOON,ioos:station:TCOON:524:1,2019-07-01T03:30:00Z,29.8672,-93.9310,0.0,1.9,146.0,2.6,'11111222,11111222,11111222' 
TCOON,ioos:station:TCOON:524:1,2019-07-01T03:36:00Z,29.8672,-93.9310,0.0,1.2,144.0,2.2,'11111222,11111222,11111222' 
TCOON,ioos:station:TCOON:524:1,2019-07-01T03:42:00Z,29.8672,-93.9310,0.0,1.4,142.0,2.2,'11111222,11111222,11111222' 
TCOON,ioos:station:TCOON:524:1,2019-07-01T03:48:00Z,29.8672,-93.9310,0.0,0.8,137.0,1.5,'11111222,11111222,11111222' 
TCOON,ioos:station:TCOON:524:1,2019-07-01T03:54:00Z,29.8672,-93.9310,0.0,1.0,141.0,1.7,'11111222,11111222,11111222' 
TCOON,ioos:station:TCOON:524:1,2019-07-01T04:00:00Z,29.8672,-93.9310,0.0,0.5,154.0,1.1,'11111222,11111222,11111222' 
TCOON,ioos:station:TCOON:524:1,2019-07-01T04:06:00Z,29.8672,-93.9310,0.0,1.8,145.0,2.7,'11111222,11111222,11111222' 
TCOON,ioos:station:TCOON:524:1,2019-07-01T04:12:00Z,29.8672,-93.9310,0.0,1.8,145.0,2.8,'11111222,11111222,11111222' 
TCOON,ioos:station:TCOON:524:1,2019-07-01T04:18:00Z,29.8672,-93.9310,0.0,1.5,147.0,3.0,'11111222,11111222,11111222' 
TCOON,ioos:station:TCOON:524:1,2019-07-01T04:24:00Z,29.8672,-93.9310,0.0,1.6,148.0,2.5,'11111222,11111222,11111222' 
TCOON,ioos:station:TCOON:524:1,2019-07-01T04:30:00Z,29.8672,-93.9310,0.0,1.6,148.0,2.5,'11111222,11111222,11111222' 
TCOON,ioos:station:TCOON:524:1,2019-07-01T04:36:00Z,29.8672,-93.9310,0.0,1.7,151.0,3.7,'11111222,11111222,11111222' 
TCOON,ioos:station:TCOON:524:1,2019-07-01T04:42:00Z,29.8672,-93.9310,0.0,2.0,156.0,3.5,'11111222,11111222,11111222' 
TCOON,ioos:station:TCOON:524:1,2019-07-01T04:48:00Z,29.8672,-93.9310,0.0,2.5,162.0,3.4,'11111222,11111222,11111222' 
TCOON,ioos:station:TCOON:524:1,2019-07-01T04:54:00Z,29.8672,-93.9310,0.0,2.1,160.0,3.2,'11111222,11111222,11111222' 
TCOON,ioos:station:TCOON:524:1,2019-07-01T05:00:00Z,29.8672,-93.9310,0.0,2.3,157.0,3.5,'11111222,11111222,11111222' 
TCOON,ioos:station:TCOON:524:1,2019-07-01T05:06:00Z,29.8672,-93.9310,0.0,2.4,161.0,4.0,'11111222,11111222,11111222' 
TCOON,ioos:station:TCOON:524:1,2019-07-01T05:12:00Z,29.8672,-93.9310,0.0,2.6,169.0,4.3,'11111222,11111222,11111222' 
TCOON,ioos:station:TCOON:524:1,2019-07-01T05:18:00Z,29.8672,-93.9310,0.0,2.6,168.0,4.2,'11111222,11111222,11111222' 
TCOON,ioos:station:TCOON:524:1,2019-07-01T05:24:00Z,29.8672,-93.9310,0.0,2.6,168.0,4.2,'11111222,11111222,11111222' 
TCOON,ioos:station:TCOON:524:1,2019-07-01T05:30:00Z,29.8672,-93.9310,0.0,2.8,174.0,4.2,'11111222,11111222,11111222' 
TCOON,ioos:station:TCOON:524:1,2019-07-01T05:36:00Z,29.8672,-93.9310,0.0,2.3,171.0,3.6,'11111222,11111222,11111222' 
TCOON,ioos:station:TCOON:524:1,2019-07-01T05:42:00Z,29.8672,-93.9310,0.0,2.6,174.0,4.2,'11111222,11111222,11111222' 
TCOON,ioos:station:TCOON:524:1,2019-07-01T05:48:00Z,29.8672,-93.9310,0.0,2.0,175.0,3.8,'11111222,11111222,11111222' 
TCOON,ioos:station:TCOON:524:1,2019-07-01T05:54:00Z,29.8672,-93.9310,0.0,2.2,173.0,3.6,'11111222,11111222,11111222' 
TCOON,ioos:station:TCOON:524:1,2019-07-01T06:00:00Z,29.8672,-93.9310,0.0,1.9,173.0,3.2,'11111222,11111222,11111222' 
TCOON,ioos:station:TCOON:524:1,2019-07-01T06:06:00Z,29.8672,-93.9310,0.0,1.8,174.0,2.5,'11111222,11111222,11111222' 
TCOON,ioos:station:TCOON:524:1,2019-07-01T06:12:00Z,29.8672,-93.9310,0.0,1.9,170.0,2.9,'11111222,11111222,11111222' 
TCOON,ioos:station:TCOON:524:1,2019-07-01T06:18:00Z,29.8672,-93.9310,0.0,2.2,179.0,3.3,'11111222,11111222,11111222' 
TCOON,ioos:station:TCOON:524:1,2019-07-01T06:24:00Z,29.8672,-93.9310,0.0,2.2,179.0,3.3,'11111222,11111222,11111222' 
TCOON,ioos:station:TCOON:524:1,2019-07-01T06:30:00Z,29.8672,-93.9310,0.0,1.7,177.0,2.3,'11111222,11111222,11111222' 
TCOON,ioos:station:TCOON:524:1,2019-07-01T06:36:00Z,29.8672,-93.9310,0.0,1.0,186.0,2.2,'11111222,11111222,11111222' 
TCOON,ioos:station:TCOON:524:1,2019-07-01T06:42:00Z,29.8672,-93.9310,0.0,0.8,174.0,1.6,'11111222,11111222,11111222' 
TCOON,ioos:station:TCOON:524:1,2019-07-01T06:48:00Z,29.8672,-93.9310,0.0,1.1,175.0,1.7,'11111222,11111222,11111222' 
TCOON,ioos:station:TCOON:524:1,2019-07-01T06:54:00Z,29.8672,-93.9310,0.0,1.1,177.0,1.9,'11111222,11111222,11111222' 
TCOON,ioos:station:TCOON:524:1,2019-07-01T07:00:00Z,29.8672,-93.9310,0.0,0.8,180.0,1.3,'11111222,11111222,11111222' 
TCOON,ioos:station:TCOON:524:1,2019-07-01T07:06:00Z,29.8672,-93.9310,0.0,1.4,171.0,2.0,'11111222,11111222,11111222' 
TCOON,ioos:station:TCOON:524:1,2019-07-01T07:12:00Z,29.8672,-93.9310,0.0,1.1,169.0,1.8,'11111222,11111222,11111222' 
TCOON,ioos:station:TCOON:524:1,2019-07-01T07:18:00Z,29.8672,-93.9310,0.0,0.8,165.0,1.6,'11111222,11111222,11111222' 
TCOON,ioos:station:TCOON:524:1,2019-07-01T07:24:00Z,29.8672,-93.9310,0.0,0.7,176.0,1.4,'11111222,11111222,11111222' 
TCOON,ioos:station:TCOON:524:1,2019-07-01T07:30:00Z,29.8672,-93.9310,0.0,0.7,176.0,1.4,'11111222,11111222,11111222' 
TCOON,ioos:station:TCOON:524:1,2019-07-01T07:36:00Z,29.8672,-93.9310,0.0,0.9,167.0,1.3,'11111222,11111222,11111222' 
TCOON,ioos:station:TCOON:524:1,2019-07-01T07:42:00Z,29.8672,-93.9310,0.0,0.8,177.0,1.3,'11111222,11111222,11111222' 
TCOON,ioos:station:TCOON:524:1,2019-07-01T07:48:00Z,29.8672,-93.9310,0.0,0.8,167.0,1.4,'11111222,11111222,11111222' 
TCOON,ioos:station:TCOON:524:1,2019-07-01T07:54:00Z,29.8672,-93.9310,0.0,1.0,169.0,1.3,'11111222,11111222,11111222' 
TCOON,ioos:station:TCOON:524:1,2019-07-01T08:00:00Z,29.8672,-93.9310,0.0,1.4,158.0,2.1,'11111222,11111222,11111222' 
TCOON,ioos:station:TCOON:524:1,2019-07-01T08:06:00Z,29.8672,-93.9310,0.0,1.0,172.0,1.9,'11111222,11111222,11111222' 
TCOON,ioos:station:TCOON:524:1,2019-07-01T08:12:00Z,29.8672,-93.9310,0.0,0.6,163.0,1.2,'11111222,11111222,11111222' 
TCOON,ioos:station:TCOON:524:1,2019-07-01T08:18:00Z,29.8672,-93.9310,0.0,0.2,226.0,0.8,'11111222,11111222,11111222' 
TCOON,ioos:station:TCOON:524:1,2019-07-01T08:24:00Z,29.8672,-93.9310,0.0,0.3,201.0,0.7,'11111222,11111222,11111222' 
TCOON,ioos:station:TCOON:524:1,2019-07-01T08:30:00Z,29.8672,-93.9310,0.0,0.3,201.0,0.7,'11111222,11111222,11111222' 
TCOON,ioos:station:TCOON:524:1,2019-07-01T08:36:00Z,29.8672,-93.9310,0.0,0.6,177.0,0.8,'11111222,11111222,11111222' 
TCOON,ioos:station:TCOON:524:1,2019-07-01T08:42:00Z,29.8672,-93.9310,0.0,1.2,168.0,1.4,'11111222,11111222,11111222' 
TCOON,ioos:station:TCOON:524:1,2019-07-01T08:48:00Z,29.8672,-93.9310,0.0,1.4,162.0,2.1,'11111222,11111222,11111222' 
TCOON,ioos:station:TCOON:524:1,2019-07-01T08:54:00Z,29.8672,-93.9310,0.0,0.7,207.0,1.3,'11111222,11111222,11111222' 
TCOON,ioos:station:TCOON:524:1,2019-07-01T09:00:00Z,29.8672,-93.9310,0.0,1.0,165.0,1.5,'11111222,11111222,11111222' 
TCOON,ioos:station:TCOON:524:1,2019-07-01T09:06:00Z,29.8672,-93.9310,0.0,0.2,195.0,1.1,'11111222,11111222,11111222' 
TCOON,ioos:station:TCOON:524:1,2019-07-01T09:12:00Z,29.8672,-93.9310,0.0,0.0,212.0,0.2,'11111222,11111222,11111222' 
TCOON,ioos:station:TCOON:524:1,2019-07-01T09:18:00Z,29.8672,-93.9310,0.0,0.0,211.0,0.0,'11111222,11111222,11111222' 
TCOON,ioos:station:TCOON:524:1,2019-07-01T09:24:00Z,29.8672,-93.9310,0.0,0.0,211.0,0.0,'11111222,11111222,11111222' 
TCOON,ioos:station:TCOON:524:1,2019-07-01T09:30:00Z,29.8672,-93.9310,0.0,0.0,211.0,0.0,'11111222,11111222,11111222' 
TCOON,ioos:station:TCOON:524:1,2019-07-01T09:36:00Z,29.8672,-93.9310,0.0,0.7,152.0,0.8,'11111222,11111222,11111222' 
TCOON,ioos:station:TCOON:524:1,2019-07-01T09:42:00Z,29.8672,-93.9310,0.0,1.0,153.0,1.3,'11111222,11111222,11111222' 
TCOON,ioos:station:TCOON:524:1,2019-07-01T09:48:00Z,29.8672,-93.9310,0.0,0.8,159.0,1.3,'11111222,11111222,11111222' 
TCOON,ioos:station:TCOON:524:1,2019-07-01T09:54:00Z,29.8672,-93.9310,0.0,0.4,154.0,0.9,'11111222,11111222,11111222' 
TCOON,ioos:station:TCOON:524:1,2019-07-01T10:00:00Z,29.8672,-93.9310,0.0,0.0,146.0,0.5,'11111222,11111222,11111222' 
TCOON,ioos:station:TCOON:524:1,2019-07-01T10:12:00Z,29.8672,-93.9310,0.0,0.0,43.0,0.0,'11111222,11111222,11111222' 
TCOON,ioos:station:TCOON:524:1,2019-07-01T10:18:00Z,29.8672,-93.9310,0.0,0.7,151.0,1.0,'11111222,11111222,11111222' 
TCOON,ioos:station:TCOON:524:1,2019-07-01T10:24:00Z,29.8672,-93.9310,0.0,1.1,164.0,1.4,'11111222,11111222,11111222' 
TCOON,ioos:station:TCOON:524:1,2019-07-01T10:30:00Z,29.8672,-93.9310,0.0,1.1,164.0,1.4,'11111222,11111222,11111222' 
TCOON,ioos:station:TCOON:524:1,2019-07-01T10:36:00Z,29.8672,-93.9310,0.0,1.3,157.0,1.7,'11111222,11111222,11111222' 
TCOON,ioos:station:TCOON:524:1,2019-07-01T10:42:00Z,29.8672,-93.9310,0.0,1.3,163.0,1.8,'11111222,11111222,11111222' 
TCOON,ioos:station:TCOON:524:1,2019-07-01T10:48:00Z,29.8672,-93.9310,0.0,0.5,167.0,1.3,'11111222,11111222,11111222' 
TCOON,ioos:station:TCOON:524:1,2019-07-01T10:54:00Z,29.8672,-93.9310,0.0,0.0,168.0,0.5,'11111222,11111222,11111222' 
TCOON,ioos:station:TCOON:524:1,2019-07-01T11:00:00Z,29.8672,-93.9310,0.0,0.0,177.0,0.0,'11111222,11111222,11111222' 
TCOON,ioos:station:TCOON:524:1,2019-07-01T11:06:00Z,29.8672,-93.9310,0.0,0.1,178.0,0.4,'11111222,11111222,11111222' 
TCOON,ioos:station:TCOON:524:1,2019-07-01T11:12:00Z,29.8672,-93.9310,0.0,0.2,149.0,0.3,'11111222,11111222,11111222' 
TCOON,ioos:station:TCOON:524:1,2019-07-01T11:18:00Z,29.8672,-93.9310,0.0,0.3,175.0,0.4,'11111222,11111222,11111222' 
TCOON,ioos:station:TCOON:524:1,2019-07-01T11:24:00Z,29.8672,-93.9310,0.0,0.6,160.0,0.7,'11111222,11111222,11111222' 
TCOON,ioos:station:TCOON:524:1,2019-07-01T11:30:00Z,29.8672,-93.9310,0.0,0.6,160.0,0.7,'11111222,11111222,11111222' 
TCOON,ioos:station:TCOON:524:1,2019-07-01T11:36:00Z,29.8672,-93.9310,0.0,0.5,146.0,0.7,'11111222,11111222,11111222' 
TCOON,ioos:station:TCOON:524:1,2019-07-01T11:42:00Z,29.8672,-93.9310,0.0,0.3,170.0,0.7,'11111222,11111222,11111222' 
TCOON,ioos:station:TCOON:524:1,2019-07-01T11:48:00Z,29.8672,-93.9310,0.0,0.5,211.0,0.6,'11111222,11111222,11111222' 
TCOON,ioos:station:TCOON:524:1,2019-07-01T11:54:00Z,29.8672,-93.9310,0.0,0.5,164.0,0.6,'11111222,11111222,11111222' 
TCOON,ioos:station:TCOON:524:1,2019-07-01T12:00:00Z,29.8672,-93.9310,0.0,0.8,179.0,1.0,'11111222,11111222,11111222' 
TCOON,ioos:station:TCOON:524:1,2019-07-01T12:06:00Z,29.8672,-93.9310,0.0,0.8,180.0,1.0,'11111222,11111222,11111222' 
TCOON,ioos:station:TCOON:524:1,2019-07-01T12:12:00Z,29.8672,-93.9310,0.0,0.4,178.0,0.8,'11111222,11111222,11111222' 
TCOON,ioos:station:TCOON:524:1,2019-07-01T12:18:00Z,29.8672,-93.9310,0.0,0.8,173.0,1.0,'11111222,11111222,11111222' 
TCOON,ioos:station:TCOON:524:1,2019-07-01T12:24:00Z,29.8672,-93.9310,0.0,0.9,151.0,1.3,'11111222,11111222,11111222' 
TCOON,ioos:station:TCOON:524:1,2019-07-01T12:30:00Z,29.8672,-93.9310,0.0,0.9,151.0,1.3,'11111222,11111222,11111222' 
TCOON,ioos:station:TCOON:524:1,2019-07-01T12:36:00Z,29.8672,-93.9310,0.0,0.5,136.0,0.9,'11111222,11111222,11111222' 
TCOON,ioos:station:TCOON:524:1,2019-07-01T12:42:00Z,29.8672,-93.9310,0.0,0.0,166.0,0.8,'11111222,11111222,11111222' 
TCOON,ioos:station:TCOON:524:1,2019-07-01T12:48:00Z,29.8672,-93.9310,0.0,0.0,173.0,0.0,'11111222,11111222,11111222' 
TCOON,ioos:station:TCOON:524:1,2019-07-01T12:54:00Z,29.8672,-93.9310,0.0,0.3,174.0,0.6,'11111222,11111222,11111222' 
TCOON,ioos:station:TCOON:524:1,2019-07-01T13:00:00Z,29.8672,-93.9310,0.0,0.0,184.0,0.4,'11111222,11111222,11111222' 
TCOON,ioos:station:TCOON:524:1,2019-07-01T13:06:00Z,29.8672,-93.9310,0.0,0.4,207.0,0.7,'11111222,11111222,11111222' 
TCOON,ioos:station:TCOON:524:1,2019-07-01T13:12:00Z,29.8672,-93.9310,0.0,0.9,192.0,1.1,'11111222,11111222,11111222' 
TCOON,ioos:station:TCOON:524:1,2019-07-01T13:18:00Z,29.8672,-93.9310,0.0,0.5,202.0,1.0,'11111222,11111222,11111222' 
TCOON,ioos:station:TCOON:524:1,2019-07-01T13:24:00Z,29.8672,-93.9310,0.0,1.4,201.0,2.0,'11111222,11111222,11111222' 
TCOON,ioos:station:TCOON:524:1,2019-07-01T13:30:00Z,29.8672,-93.9310,0.0,1.4,201.0,2.0,'11111222,11111222,11111222' 
TCOON,ioos:station:TCOON:524:1,2019-07-01T13:36:00Z,29.8672,-93.9310,0.0,1.9,207.0,2.1,'11111222,11111222,11111222' 
TCOON,ioos:station:TCOON:524:1,2019-07-01T13:42:00Z,29.8672,-93.9310,0.0,2.0,202.0,2.4,'11111222,11111222,11111222' 
TCOON,ioos:station:TCOON:524:1,2019-07-01T13:48:00Z,29.8672,-93.9310,0.0,2.5,203.0,2.8,'11111222,11111222,11111222' 
TCOON,ioos:station:TCOON:524:1,2019-07-01T13:54:00Z,29.8672,-93.9310,0.0,1.7,200.0,2.5,'11111222,11111222,11111222' 
TCOON,ioos:station:TCOON:524:1,2019-07-01T14:00:00Z,29.8672,-93.9310,0.0,1.4,181.0,2.5,'11111222,11111222,11111222' 
TCOON,ioos:station:TCOON:524:1,2019-07-01T14:06:00Z,29.8672,-93.9310,0.0,2.1,96.0,2.6,'11111222,11111222,11111222' 
TCOON,ioos:station:TCOON:524:1,2019-07-01T14:12:00Z,29.8672,-93.9310,0.0,2.2,77.0,2.8,'11111222,11111222,11111222' 
TCOON,ioos:station:TCOON:524:1,2019-07-01T14:18:00Z,29.8672,-93.9310,0.0,2.4,89.0,3.2,'11111222,11111222,11111222' 
TCOON,ioos:station:TCOON:524:1,2019-07-01T14:24:00Z,29.8672,-93.9310,0.0,2.3,90.0,3.3,'11111222,11111222,11111222' 
TCOON,ioos:station:TCOON:524:1,2019-07-01T14:30:00Z,29.8672,-93.9310,0.0,1.9,96.0,2.5,'11111222,11111222,11111222' 
TCOON,ioos:station:TCOON:524:1,2019-07-01T14:36:00Z,29.8672,-93.9310,0.0,2.9,96.0,3.7,'11111222,11111222,11111222' 
TCOON,ioos:station:TCOON:524:1,2019-07-01T14:42:00Z,29.8672,-93.9310,0.0,2.1,95.0,3.2,'11111222,11111222,11111222' 
TCOON,ioos:station:TCOON:524:1,2019-07-01T14:48:00Z,29.8672,-93.9310,0.0,2.2,97.0,2.9,'11111222,11111222,11111222' 
TCOON,ioos:station:TCOON:524:1,2019-07-01T14:54:00Z,29.8672,-93.9310,0.0,2.1,86.0,3.3,'11111222,11111222,11111222' 
TCOON,ioos:station:TCOON:524:1,2019-07-01T15:00:00Z,29.8672,-93.9310,0.0,2.9,96.0,3.5,'11111222,11111222,11111222' 
TCOON,ioos:station:TCOON:524:1,2019-07-01T15:06:00Z,29.8672,-93.9310,0.0,2.8,87.0,3.7,'11111222,11111222,11111222' 
TCOON,ioos:station:TCOON:524:1,2019-07-01T15:12:00Z,29.8672,-93.9310,0.0,2.6,95.0,3.4,'11111222,11111222,11111222' 
TCOON,ioos:station:TCOON:524:1,2019-07-01T15:18:00Z,29.8672,-93.9310,0.0,2.5,98.0,3.1,'11111222,11111222,11111222' 
TCOON,ioos:station:TCOON:524:1,2019-07-01T15:24:00Z,29.8672,-93.9310,0.0,2.2,79.0,3.4,'11111222,11111222,11111222' 
TCOON,ioos:station:TCOON:524:1,2019-07-01T15:30:00Z,29.8672,-93.9310,0.0,2.1,94.0,3.2,'11111222,11111222,11111222' 
TCOON,ioos:station:TCOON:524:1,2019-07-01T15:36:00Z,29.8672,-93.9310,0.0,2.5,89.0,3.2,'11111222,11111222,11111222' 
TCOON,ioos:station:TCOON:524:1,2019-07-01T15:42:00Z,29.8672,-93.9310,0.0,2.9,82.0,3.7,'11111222,11111222,11111222' 
TCOON,ioos:station:TCOON:524:1,2019-07-01T15:48:00Z,29.8672,-93.9310,0.0,2.9,82.0,3.7,'11111222,11111222,11111222' 
TCOON,ioos:station:TCOON:524:1,2019-07-01T15:54:00Z,29.8672,-93.9310,0.0,2.1,68.0,2.9,'11111222,11111222,11111222' 
TCOON,ioos:station:TCOON:524:1,2019-07-01T16:00:00Z,29.8672,-93.9310,0.0,1.9,79.0,3.1,'11111222,11111222,11111222' 
TCOON,ioos:station:TCOON:524:1,2019-07-01T16:06:00Z,29.8672,-93.9310,0.0,2.5,95.0,3.1,'11111222,11111222,11111222' 
TCOON,ioos:station:TCOON:524:1,2019-07-01T16:12:00Z,29.8672,-93.9310,0.0,2.4,84.0,3.3,'11111222,11111222,11111222' 
TCOON,ioos:station:TCOON:524:1,2019-07-01T16:18:00Z,29.8672,-93.9310,0.0,1.9,91.0,3.2,'11111222,11111222,11111222' 
TCOON,ioos:station:TCOON:524:1,2019-07-01T16:24:00Z,29.8672,-93.9310,0.0,1.8,109.0,3.1,'11111222,11111222,11111222' 
TCOON,ioos:station:TCOON:524:1,2019-07-01T16:30:00Z,29.8672,-93.9310,0.0,1.8,109.0,3.1,'11111222,11111222,11111222' 
TCOON,ioos:station:TCOON:524:1,2019-07-01T16:36:00Z,29.8672,-93.9310,0.0,2.7,79.0,3.6,'11111222,11111222,11111222' 
TCOON,ioos:station:TCOON:524:1,2019-07-01T16:42:00Z,29.8672,-93.9310,0.0,2.5,74.0,3.8,'11111222,11111222,11111222' 
TCOON,ioos:station:TCOON:524:1,2019-07-01T16:48:00Z,29.8672,-93.9310,0.0,2.8,84.0,3.6,'11111222,11111222,11111222' 
TCOON,ioos:station:TCOON:524:1,2019-07-01T16:54:00Z,29.8672,-93.9310,0.0,2.7,83.0,3.6,'11111222,11111222,11111222' 
TCOON,ioos:station:TCOON:524:1,2019-07-01T17:00:00Z,29.8672,-93.9310,0.0,2.6,64.0,3.8,'11111222,11111222,11111222' 
TCOON,ioos:station:TCOON:524:1,2019-07-01T17:06:00Z,29.8672,-93.9310,0.0,1.8,83.0,4.1,'11111222,11111222,11111222' 
TCOON,ioos:station:TCOON:524:1,2019-07-01T17:12:00Z,29.8672,-93.9310,0.0,1.5,74.0,3.6,'11111222,11111222,11111222' 
TCOON,ioos:station:TCOON:524:1,2019-07-01T17:18:00Z,29.8672,-93.9310,0.0,2.3,73.0,3.1,'11111222,11111222,11111222' 
TCOON,ioos:station:TCOON:524:1,2019-07-01T17:24:00Z,29.8672,-93.9310,0.0,2.1,94.0,3.3,'11111222,11111222,11111222' 
TCOON,ioos:station:TCOON:524:1,2019-07-01T17:30:00Z,29.8672,-93.9310,0.0,2.1,94.0,3.3,'11111222,11111222,11111222' 
TCOON,ioos:station:TCOON:524:1,2019-07-01T17:36:00Z,29.8672,-93.9310,0.0,2.4,98.0,3.7,'11111222,11111222,11111222' 
TCOON,ioos:station:TCOON:524:1,2019-07-01T18:00:00Z,29.8672,-93.9310,0.0,1.8,118.0,2.6,'11111222,11111222,11111222' 
TCOON,ioos:station:TCOON:524:1,2019-07-01T18:06:00Z,29.8672,-93.9310,0.0,2.5,120.0,4.0,'11111222,11111222,11111222' 
TCOON,ioos:station:TCOON:524:1,2019-07-01T18:12:00Z,29.8672,-93.9310,0.0,2.7,103.0,4.3,'11111222,11111222,11111222' 
TCOON,ioos:station:TCOON:524:1,2019-07-01T18:18:00Z,29.8672,-93.9310,0.0,4.0,94.0,6.7,'11111222,11111222,11111222' 
TCOON,ioos:station:TCOON:524:1,2019-07-01T18:24:00Z,29.8672,-93.9310,0.0,4.3,94.0,6.2,'11111222,11111222,11111222' 
TCOON,ioos:station:TCOON:524:1,2019-07-01T18:30:00Z,29.8672,-93.9310,0.0,4.3,94.0,6.2,'11111222,11111222,11111222' 
TCOON,ioos:station:TCOON:524:1,2019-07-01T18:36:00Z,29.8672,-93.9310,0.0,4.5,101.0,6.7,'11111222,11111222,11111222' 
TCOON,ioos:station:TCOON:524:1,2019-07-01T18:42:00Z,29.8672,-93.9310,0.0,4.1,106.0,6.0,'11111222,11111222,11111222' 
TCOON,ioos:station:TCOON:524:1,2019-07-01T18:48:00Z,29.8672,-93.9310,0.0,4.1,111.0,6.3,'11111222,11111222,11111222' 
TCOON,ioos:station:TCOON:524:1,2019-07-01T18:54:00Z,29.8672,-93.9310,0.0,2.7,112.0,5.4,'11111222,11111222,11111222' 
TCOON,ioos:station:TCOON:524:1,2019-07-01T19:00:00Z,29.8672,-93.9310,0.0,3.6,110.0,6.2,'11111222,11111222,11111222' 
TCOON,ioos:station:TCOON:524:1,2019-07-01T19:06:00Z,29.8672,-93.9310,0.0,3.8,125.0,5.7,'11111222,11111222,11111222' 
TCOON,ioos:station:TCOON:524:1,2019-07-01T19:12:00Z,29.8672,-93.9310,0.0,4.4,133.0,5.6,'11111222,11111222,11111222' 
TCOON,ioos:station:TCOON:524:1,2019-07-01T19:18:00Z,29.8672,-93.9310,0.0,3.8,121.0,5.2,'11111222,11111222,11111222' 
TCOON,ioos:station:TCOON:524:1,2019-07-01T19:24:00Z,29.8672,-93.9310,0.0,3.2,123.0,5.3,'11111222,11111222,11111222' 
TCOON,ioos:station:TCOON:524:1,2019-07-01T19:30:00Z,29.8672,-93.9310,0.0,3.2,123.0,5.3,'11111222,11111222,11111222' 
TCOON,ioos:station:TCOON:524:1,2019-07-01T19:36:00Z,29.8672,-93.9310,0.0,3.4,116.0,4.4,'11111222,11111222,11111222' 
TCOON,ioos:station:TCOON:524:1,2019-07-01T19:42:00Z,29.8672,-93.9310,0.0,3.2,128.0,4.3,'11111222,11111222,11111222' 
TCOON,ioos:station:TCOON:524:1,2019-07-01T19:48:00Z,29.8672,-93.9310,0.0,3.4,133.0,4.8,'11111222,11111222,11111222' 
TCOON,ioos:station:TCOON:524:1,2019-07-01T19:54:00Z,29.8672,-93.9310,0.0,3.8,136.0,5.0,'11111222,11111222,11111222' 
TCOON,ioos:station:TCOON:524:1,2019-07-01T20:00:00Z,29.8672,-93.9310,0.0,3.0,138.0,4.8,'11111222,11111222,11111222' 
TCOON,ioos:station:TCOON:524:1,2019-07-01T20:06:00Z,29.8672,-93.9310,0.0,3.3,142.0,5.2,'11111222,11111222,11111222' 
TCOON,ioos:station:TCOON:524:1,2019-07-01T20:12:00Z,29.8672,-93.9310,0.0,2.6,142.0,5.1,'11111222,11111222,11111222' 
TCOON,ioos:station:TCOON:524:1,2019-07-01T20:18:00Z,29.8672,-93.9310,0.0,2.9,142.0,4.8,'11111222,11111222,11111222' 
TCOON,ioos:station:TCOON:524:1,2019-07-01T20:24:00Z,29.8672,-93.9310,0.0,2.5,137.0,5.2,'11111222,11111222,11111222' 
TCOON,ioos:station:TCOON:524:1,2019-07-01T20:30:00Z,29.8672,-93.9310,0.0,2.5,137.0,5.2,'11111222,11111222,11111222' 
TCOON,ioos:station:TCOON:524:1,2019-07-01T20:36:00Z,29.8672,-93.9310,0.0,3.9,150.0,5.5,'11111222,11111222,11111222' 
TCOON,ioos:station:TCOON:524:1,2019-07-01T20:42:00Z,29.8672,-93.9310,0.0,3.0,137.0,5.0,'11111222,11111222,11111222' 